When you browse on this site, cookies collect data to enhance your experience and personalize the content and advertising you see.
Visit our Privacy Policy to learn more. By continuing to use the site, you agree to this use of cookies and data.
  • In United Kingdom
  • List of Countries
  • For 7 days
  • Water Temperature
  • Weather Map
  • Weather Widgets
  • user-avatar
    Login

    Hourly Weather Buenos Aires

    Today, 5 June, Friday

    Time Temperature Precipitation Wind Pressure Humidity
    00:00 +11°C° 0 mm 3 mps 765 mmHg 74%
    01:00 +11°C° 0 mm 3 mps 765 mmHg 76%
    02:00 +11°C° 0 mm 3 mps 765 mmHg 78%
    03:00 +11°C° 0 mm 3 mps 765 mmHg 79%
    04:00 +11°C° 0 mm 4 mps 764 mmHg 81%
    05:00 +11°C° 0 mm 4 mps 764 mmHg 83%
    06:00 +11°C° 0 mm 4 mps 764 mmHg 83%
    07:00 +10°C° 0 mm 5 mps 764 mmHg 82%
    08:00 +10°C° 0 mm 5 mps 764 mmHg 82%
    09:00 +12°C° 0 mm 5 mps 764 mmHg 79%
    10:00 +13°C° 0 mm 6 mps 763 mmHg 75%
    11:00 +14°C° 0 mm 6 mps 763 mmHg 72%
    12:00 +14°C° 0 mm 6 mps 762 mmHg 73%
    13:00 +15°C° 0 mm 6 mps 761 mmHg 73%
    14:00 +15°C° 0 mm 6 mps 761 mmHg 73%
    15:00 +15°C° 0.1 mm 7 mps 760 mmHg 77%
    16:00 +15°C° 0.1 mm 7 mps 760 mmHg 80%
    17:00 +15°C° 0.1 mm 8 mps 759 mmHg 84%
    18:00 +15°C° 0.3 mm 8 mps 759 mmHg 85%
    19:00 +15°C° 0.3 mm 8 mps 759 mmHg 87%
    20:00 +15°C° 0.3 mm 8 mps 759 mmHg 89%
    21:00 +15°C° 0.1 mm 8 mps 759 mmHg 89%
    22:00 +15°C° 0.1 mm 7 mps 759 mmHg 90%
    23:00 +15°C° 0.1 mm 7 mps 758 mmHg 90%

    Tomorrow, 6 June, Saturday

    Time Temperature Precipitation Wind Pressure Humidity
    00:00 +15°C° 0.3 mm 7 mps 758 mmHg 89%
    01:00 +15°C° 0.3 mm 8 mps 758 mmHg 89%
    02:00 +15°C° 0.3 mm 8 mps 758 mmHg 88%
    03:00 +15°C° 0.4 mm 8 mps 757 mmHg 88%
    04:00 +15°C° 0.4 mm 8 mps 757 mmHg 87%
    05:00 +15°C° 0.4 mm 8 mps 757 mmHg 87%
    06:00 +15°C° 0.2 mm 8 mps 757 mmHg 87%
    07:00 +16°C° 0.2 mm 8 mps 757 mmHg 87%
    08:00 +16°C° 0.2 mm 8 mps 757 mmHg 86%
    09:00 +16°C° 0.1 mm 7 mps 757 mmHg 86%
    10:00 +16°C° 0.1 mm 7 mps 757 mmHg 86%
    11:00 +16°C° 0.1 mm 6 mps 757 mmHg 86%
    12:00 +16°C° 0 mm 5 mps 757 mmHg 85%
    13:00 +18°C° 0 mm 4 mps 756 mmHg 83%
    14:00 +18°C° 0 mm 3 mps 756 mmHg 82%
    15:00 +17°C° 0.1 mm 3 mps 756 mmHg 84%
    16:00 +17°C° 0.1 mm 2 mps 757 mmHg 86%
    17:00 +17°C° 0.1 mm 2 mps 757 mmHg 89%
    18:00 +16°C° 0 mm 2 mps 757 mmHg 90%
    19:00 +16°C° 0 mm 2 mps 757 mmHg 91%
    20:00 +16°C° 0 mm 2 mps 757 mmHg 92%
    21:00 +16°C° 0 mm 2 mps 758 mmHg 92%
    22:00 +16°C° 0 mm 1 mps 758 mmHg 92%
    23:00 +16°C° 0 mm 1 mps 758 mmHg 92%

    Day after tomorrow, 7 June, Sunday

    Time Temperature Precipitation Wind Pressure Humidity
    00:00 +16°C° 0 mm 1 mps 758 mmHg 92%
    01:00 +16°C° 0 mm 1 mps 758 mmHg 92%
    02:00 +16°C° 0 mm 1 mps 758 mmHg 92%
    03:00 +16°C° 0 mm 1 mps 759 mmHg 92%
    04:00 +16°C° 0 mm 1 mps 759 mmHg 91%
    05:00 +16°C° 0 mm 1 mps 759 mmHg 91%
    06:00 +16°C° 0 mm 1 mps 759 mmHg 89%
    07:00 +16°C° 0 mm 1 mps 760 mmHg 87%
    08:00 +16°C° 0 mm 1 mps 760 mmHg 85%
    09:00 +18°C° 0 mm 1 mps 760 mmHg 81%
    10:00 +18°C° 0 mm 1 mps 761 mmHg 77%
    11:00 +17°C° 0 mm 0 mps 761 mmHg 73%
    12:00 +19°C° 0 mm 1 mps 761 mmHg 72%
    13:00 +20°C° 0 mm 1 mps 760 mmHg 70%
    14:00 +20°C° 0 mm 1 mps 760 mmHg 69%
    15:00 +20°C° 0 mm 1 mps 760 mmHg 70%
    16:00 +19°C° 0 mm 1 mps 760 mmHg 72%
    17:00 +19°C° 0 mm 1 mps 760 mmHg 74%
    18:00 +19°C° 0 mm 1 mps 761 mmHg 74%
    19:00 +19°C° 0 mm 1 mps 761 mmHg 75%
    20:00 +19°C° 0 mm 1 mps 761 mmHg 75%
    21:00 +18°C° 0 mm 1 mps 761 mmHg 77%
    22:00 +18°C° 0 mm 1 mps 761 mmHg 79%
    23:00 +16°C° 0 mm 2 mps 761 mmHg 81%

    8 June, Monday

    Time Temperature Precipitation Wind Pressure Humidity
    00:00 +16°C° 0 mm 2 mps 761 mmHg 82%
    01:00 +16°C° 0 mm 2 mps 761 mmHg 82%
    02:00 +16°C° 0 mm 2 mps 761 mmHg 83%
    03:00 +15°C° 0 mm 2 mps 761 mmHg 84%
    04:00 +15°C° 0 mm 2 mps 761 mmHg 86%
    05:00 +15°C° 0 mm 2 mps 761 mmHg 87%
    06:00 +15°C° 0 mm 2 mps 761 mmHg 87%
    07:00 +15°C° 0 mm 2 mps 761 mmHg 87%
    08:00 +15°C° 0 mm 2 mps 761 mmHg 86%
    09:00 +17°C° 0 mm 2 mps 761 mmHg 80%
    10:00 +18°C° 0 mm 2 mps 761 mmHg 73%
    11:00 +21°C° 0 mm 1 mps 761 mmHg 66%
    12:00 +21°C° 0 mm 1 mps 761 mmHg 61%
    13:00 +22°C° 0 mm 1 mps 760 mmHg 56%
    14:00 +23°C° 0 mm 2 mps 759 mmHg 50%
    15:00 +21°C° 0 mm 2 mps 759 mmHg 54%
    16:00 +20°C° 0 mm 2 mps 759 mmHg 58%
    17:00 +19°C° 0 mm 2 mps 759 mmHg 62%
    18:00 +18°C° 0 mm 2 mps 759 mmHg 65%
    19:00 +18°C° 0 mm 2 mps 759 mmHg 69%
    20:00 +17°C° 0 mm 2 mps 760 mmHg 72%
    21:00 +17°C° 0 mm 2 mps 760 mmHg 73%
    22:00 +17°C° 0 mm 3 mps 760 mmHg 75%
    23:00 +16°C° 0 mm 3 mps 760 mmHg 76%

    9 June, Tuesday

    Time Temperature Precipitation Wind Pressure Humidity
    00:00 +16°C° 0 mm 3 mps 760 mmHg 76%
    01:00 +16°C° 0 mm 3 mps 760 mmHg 75%
    02:00 +14°C° 0 mm 3 mps 760 mmHg 75%
    03:00 +14°C° 0 mm 3 mps 760 mmHg 76%
    04:00 +14°C° 0 mm 3 mps 760 mmHg 76%
    05:00 +14°C° 0 mm 2 mps 760 mmHg 76%
    06:00 +13°C° 0 mm 3 mps 760 mmHg 75%
    07:00 +13°C° 0 mm 3 mps 760 mmHg 74%
    08:00 +13°C° 0 mm 3 mps 761 mmHg 72%
    09:00 +14°C° 0 mm 3 mps 761 mmHg 66%
    10:00 +14°C° 0 mm 3 mps 761 mmHg 60%
    11:00 +16°C° 0 mm 3 mps 761 mmHg 54%
    12:00 +17°C° 0 mm 3 mps 760 mmHg 49%
    13:00 +17°C° 0 mm 2 mps 760 mmHg 45%
    14:00 +18°C° 0 mm 2 mps 759 mmHg 41%
    15:00 +17°C° 0 mm 2 mps 759 mmHg 42%
    16:00 +16°C° 0 mm 1 mps 759 mmHg 43%
    17:00 +15°C° 0 mm 1 mps 759 mmHg 44%
    18:00 +15°C° 0 mm 1 mps 759 mmHg 45%
    19:00 +14°C° 0 mm 1 mps 759 mmHg 46%
    20:00 +14°C° 0 mm 1 mps 759 mmHg 47%
    21:00 +13°C° 0 mm 1 mps 759 mmHg 49%
    22:00 +13°C° 0 mm 1 mps 759 mmHg 51%
    23:00 +13°C° 0 mm 1 mps 759 mmHg 52%

    10 June, Wednesday

    Time Temperature Precipitation Wind Pressure Humidity
    00:00 +12°C° 0 mm 1 mps 759 mmHg 53%
    01:00 +12°C° 0 mm 1 mps 759 mmHg 54%
    02:00 +12°C° 0 mm 2 mps 759 mmHg 54%
    03:00 +10°C° 0 mm 2 mps 759 mmHg 52%
    04:00 +10°C° 0 mm 2 mps 759 mmHg 50%
    05:00 +10°C° 0 mm 2 mps 759 mmHg 48%
    06:00 +10°C° 0 mm 2 mps 759 mmHg 47%
    07:00 +10°C° 0 mm 3 mps 759 mmHg 46%
    08:00 +10°C° 0 mm 3 mps 759 mmHg 44%
    09:00 +12°C° 0 mm 3 mps 760 mmHg 40%
    10:00 +13°C° 0 mm 3 mps 760 mmHg 36%
    11:00 +16°C° 0 mm 3 mps 760 mmHg 33%
    12:00 +17°C° 0 mm 3 mps 759 mmHg 32%
    13:00 +17°C° 0 mm 3 mps 759 mmHg 32%
    14:00 +18°C° 0 mm 3 mps 759 mmHg 32%
    15:00 +18°C° 0 mm 2 mps 759 mmHg 33%
    16:00 +17°C° 0 mm 2 mps 759 mmHg 35%
    17:00 +16°C° 0 mm 1 mps 759 mmHg 37%
    18:00 +15°C° 0 mm 1 mps 759 mmHg 39%
    19:00 +15°C° 0 mm 1 mps 759 mmHg 40%
    20:00 +14°C° 0 mm 1 mps 759 mmHg 42%
    21:00 +14°C° 0 mm 2 mps 759 mmHg 43%
    22:00 +14°C° 0 mm 2 mps 760 mmHg 45%
    23:00 +13°C° 0 mm 2 mps 760 mmHg 46%
    Show more